Wind_Speed
35 36 37 37 37 38 38 38 39 39 39 40 39 39 40 39 40 41 43 43 42 42 43 42 44 45 45 46 46 46 47 47 46 45 45 46 47 47 47 48 48 48 48
35 35 36 37 37 38 38 39 39 40 40 41 41 41 41 42 42 42 43 43 44 44 44 43 43 43 43 44 46 46 46 47 46 45 45 45 45 46 46 47 47 48 48
34 35 35 36 37 38 39 39 40 40 41 41 41 42 43 43 43 44 44 44 44 45 46 45 45 45 45 45 46 46 46 47 47 46 46 47 46 46 46 46 46 46 47
33 33 34 35 37 38 39 39 40 40 41 41 41 42 43 43 44 44 45 46 46 46 47 47 48 48 48 48 47 47 47 47 46 47 47 48 48 46 46 46 46 47 48
32 33 34 35 36 38 38 39 39 40 40 41 41 42 43 43 44 45 46 47 47 48 48 48 48 48 48 48 47 47 47 48 48 48 48 48 48 48 48 48 48 48 48
32 33 34 35 35 36 37 38 39 39 40 41 41 42 43 43 44 45 46 46 46 47 47 47 47 47 48 48 48 47 48 48 48 49 49 48 49 50 51 51 51 50 49
34 34 34 35 35 36 37 37 38 39 40 40 41 42 42 43 44 46 46 45 45 46 46 47 47 48 48 48 48 48 48 48 48 48 48 48 48 49 50 51 51 51 51
34 34 34 34 35 36 36 37 38 38 39 39 40 41 41 42 42 42 43 44 44 45 45 45 46 46 47 47 47 48 48 48 47 47 48 48 48 48 48 48 49 50 50
33 34 34 34 34 35 35 36 36 37 37 37 38 39 40 40 41 42 42 42 42 43 43 44 44 45 45 45 46 47 47 48 48 47 47 47 48 48 48 48 49 49 49
33 33 33 33 33 34 34 35 35 36 37 37 38 39 40 40 41 41 41 41 41 41 41 42 42 43 43 44 45 45 45 46 46 46 47 48 48 48 48 48 49 49 49
33 33 33 33 32 33 33 34 35 35 36 37 37 38 39 39 40 40 40 40 40 40 40 40 41 41 42 43 43 44 44 45 45 46 47 47 47 48 48 49 49 49 48
31 31 31 31 31 32 32 32 33 34 35 35 36 37 38 38 39 39 39 40 40 40 39 40 40 41 42 42 42 43 44 44 45 46 47 47 47 47 48 49 49 48 48
30 30 30 31 31 31 32 32 33 33 33 34 35 36 37 38 38 38 39 39 39 39 39 40 40 41 41 42 42 42 42 43 44 45 45 46 46 46 45 46 46 46 45
31 31 31 31 31 31 32 33 33 33 33 33 34 35 36 36 37 38 39 39 39 39 39 39 40 40 41 41 41 41 41 42 42 43 44 45 45 45 45 45 45 44 43
31 31 31 32 32 32 32 33 33 34 34 34 34 35 35 35 36 37 38 38 38 38 38 38 39 39 40 40 41 41 41 42 42 42 43 44 45 45 45 44 43 43 42
31 31 31 31 32 32 32 33 33 34 34 34 34 34 35 35 35 36 37 37 37 37 37 38 38 38 38 39 40 40 41 41 42 43 43 43 44 44 44 43 42 41 41
29 29 30 30 31 32 32 33 33 33 34 34 34 34 34 34 35 35 35 35 35 36 36 37 37 37 38 39 39 40 40 41 42 42 43 43 43 43 43 42 40 40 39
27 28 28 29 30 31 32 32 32 32 32 33 33 33 33 33 33 34 34 34 35 35 36 36 37 37 38 39 39 39 40 40 41 42 42 42 41 41 40 39 38 37 36
27 27 27 28 29 30 30 30 31 31 30 30 31 31 32 32 32 33 33 34 34 35 36 36 36 37 38 38 38 39 39 39 40 40 40 39 38 38 36 36 35 35 34
26 26 27 27 28 29 29 29 29 29 30 30 30 30 30 31 31 32 33 33 34 35 35 36 36 36 37 37 37 37 38 38 38 38 38 37 35 34 33 33 33 33 33
25 26 26 26 27 28 29 29 29 29 29 29 29 29 29 30 31 32 32 32 33 33 34 34 35 36 36 36 36 36 37 37 37 36 35 33 32 32 31 31 31 31 30
23 24 25 25 26 27 27 28 28 28 28 27 27 28 28 29 30 31 31 31 31 32 32 32 33 33 34 35 35 36 36 35 34 33 32 31 31 30 30 30 30 30 29
23 24 25 26 26 27 27 26 26 26 26 26 26 27 27 28 28 29 30 30 30 31 31 32 32 32 33 33 34 33 32 31 30 30 29 29 29 29 28 28 27 27 27
23 24 25 26 26 26 26 26 25 25 24 24 25 26 26 27 28 28 28 29 29 30 30 30 30 30 31 31 30 29 28 28 28 28 27 27 27 26 26 25 24 24 24
23 24 24 24 24 24 24 24 24 23 23 24 25 25 26 27 28 28 28 28 28 29 29 30 30 29 28 28 28 27 27 26 26 25 25 25 24 23 23 23 22 23 22
22 22 23 23 23 23 23 23 22 22 23 24 25 25 26 27 27 27 27 28 28 28 28 28 27 27 26 26 26 25 25 24 24 24 23 23 22 21 21 21 21 21 21
Wind_Direction
257 257 257 257 256 255 255 255 254 254 253 254 255 256 258 260 262 263 264 266 267 268 268 268 268 268 269 270 270 271 271 273 274 275 276 277 277 278 278 280 281 281 282
258 258 258 258 258 257 256 256 255 254 254 255 256 258 260 261 263 264 265 267 267 268 269 270 269 268 270 272 271 271 272 274 275 275 276 278 279 279 280 280 281 283 283
259 259 259 259 259 258 257 257 256 256 256 256 258 260 261 263 265 266 266 267 268 269 270 270 269 269 270 273 273 273 274 275 276 277 278 279 279 280 280 280 282 283 283
260 261 261 261 261 260 259 258 257 257 257 258 260 262 263 264 265 266 267 267 269 270 270 270 270 270 271 272 273 274 275 276 277 278 278 279 279 279 280 281 282 282 282
262 263 264 264 263 262 261 260 258 258 259 259 260 263 264 265 266 267 268 269 270 270 270 270 271 271 271 272 273 273 274 276 277 278 279 279 279 279 280 281 282 282 283
264 265 266 265 265 264 262 260 259 260 261 261 262 264 265 266 267 268 269 270 270 270 270 271 271 272 272 272 273 273 274 275 276 277 278 278 279 279 280 281 282 282 282
266 266 266 266 265 264 263 262 262 262 262 263 264 265 266 268 269 270 270 271 271 271 271 271 272 273 272 273 273 274 275 275 276 277 278 278 279 280 280 281 281 281 282
267 267 267 266 265 264 263 263 263 264 265 266 266 267 268 269 270 271 271 272 272 272 272 272 273 273 273 273 274 275 276 275 275 276 277 277 277 278 279 281 281 282 283
268 267 266 265 265 265 265 265 266 266 266 267 268 268 270 271 271 272 273 273 273 273 273 273 274 275 275 274 274 275 277 276 275 277 277 278 278 280 280 281 282 282 282
267 266 265 265 265 265 266 267 268 268 268 268 268 269 270 271 272 273 273 273 274 274 274 274 275 275 275 274 275 276 276 277 277 278 279 280 280 280 281 281 282 282 282
265 265 265 265 265 266 267 269 269 269 270 270 270 271 271 272 274 274 274 274 274 274 274 275 276 276 276 276 277 277 277 278 279 280 281 281 281 281 281 282 283 283 282
265 265 265 265 266 267 269 270 270 271 272 272 272 273 273 273 274 275 275 275 275 275 275 275 276 277 277 278 278 279 278 278 280 281 282 282 283 283 283 284 284 284 283
264 265 266 266 268 269 270 271 272 272 273 273 274 274 274 274 274 275 275 275 275 276 277 277 277 277 278 278 279 279 279 280 281 282 283 284 284 284 285 285 285 284 283
264 265 267 268 270 271 272 272 273 274 275 275 276 276 276 275 275 275 275 276 277 277 278 278 278 277 278 278 278 279 280 281 282 283 285 285 285 285 286 285 284 283 282
265 266 268 269 271 272 273 273 273 274 276 277 277 277 277 277 277 276 276 276 277 277 278 279 279 278 278 278 279 281 282 283 283 284 285 286 286 286 286 285 284 283 283
266 267 269 271 272 273 275 276 275 276 276 277 278 278 278 278 277 277 277 277 278 279 280 281 281 280 280 281 282 282 283 284 284 285 286 287 287 288 287 285 283 283 283
268 268 269 272 274 275 276 277 278 278 277 277 279 279 280 279 278 277 278 279 280 280 281 282 282 282 282 282 283 283 284 285 286 286 287 288 288 288 288 286 284 284 284
270 270 271 273 275 276 277 277 278 279 279 279 280 281 281 280 279 279 280 282 282 281 282 284 284 284 283 283 284 284 284 286 287 287 287 287 288 287 287 285 284 283 284
272 273 273 275 277 278 278 278 279 278 278 279 280 281 281 280 280 281 282 283 283 283 284 285 285 284 284 284 284 284 285 286 287 288 288 288 287 287 286 285 283 283 283
272 274 275 277 278 278 279 279 279 277 277 279 280 281 281 282 283 284 284 284 285 286 286 286 286 285 285 285 285 284 285 286 287 288 288 288 287 287 286 285 284 283 283
274 275 277 278 279 279 280 281 280 278 278 278 279 280 281 284 286 287 288 287 288 288 288 288 287 287 287 286 286 285 285 286 287 287 286 286 286 286 286 286 286 284 283
276 277 279 280 282 282 282 282 280 278 278 278 279 281 284 287 289 290 289 289 290 291 291 290 290 290 289 288 287 287 287 287 286 286 285 285 285 284 285 285 285 284 283
280 280 281 283 284 284 284 283 281 280 279 280 282 284 286 289 291 292 291 290 290 292 292 291 291 291 291 291 290 289 289 288 286 285 285 286 286 285 285 285 285 284 283
282 283 283 284 284 284 284 282 281 279 279 280 283 286 288 291 293 294 292 291 291 292 292 293 293 293 294 293 292 291 290 289 288 286 285 286 286 285 285 284 284 283 283
284 284 285 285 285 285 284 282 280 279 280 282 286 288 290 292 294 295 294 293 293 294 294 295 294 294 294 295 294 293 292 291 289 287 286 287 285 284 284 283 282 283 283
288 287 286 286 286 287 285 283 281 281 282 284 287 290 292 293 294 295 295 295 294 295 295 296 295 294 294 294 294 294 293 291 289 287 287 287 285 284 284 283 283 283 284
Height
5631 5633 5634 5636 5638 5639 5642 5644 5646 5648 5650 5652 5654 5655 5657 5658 5659 5660 5660 5660 5661 5661 5661 5661 5661 5661 5661 5661 5661 5661 5661 5661 5661 5660 5658 5657 5655 5654 5653 5651 5649 5647 5646
5623 5624 5626 5627 5629 5631 5633 5635 5636 5639 5641 5642 5644 5645 5647 5648 5648 5649 5650 5650 5650 5650 5650 5650 5650 5650 5649 5649 5649 5649 5649 5648 5648 5648 5646 5645 5643 5641 5640 5638 5636 5634 5632
5615 5616 5617 5619 5620 5622 5623 5625 5627 5629 5631 5633 5634 5635 5636 5637 5638 5638 5638 5639 5639 5639 5638 5638 5638 5638 5638 5637 5637 5636 5636 5636 5635 5635 5634 5632 5630 5628 5627 5625 5623 5621 5619
5606 5608 5609 5610 5611 5612 5614 5615 5617 5619 5621 5622 5623 5624 5625 5626 5626 5627 5627 5627 5627 5627 5626 5626 5626 5626 5626 5625 5625 5624 5624 5623 5622 5621 5621 5619 5617 5615 5614 5613 5611 5608 5606
5598 5599 5600 5601 5602 5603 5604 5605 5607 5608 5610 5611 5612 5613 5613 5614 5614 5615 5615 5615 5615 5614 5614 5613 5613 5613 5613 5612 5612 5611 5611 5610 5609 5608 5607 5606 5604 5603 5601 5599 5598 5595 5593
5590 5590 5591 5591 5592 5593 5594 5595 5597 5598 5599 5600 5601 5602 5602 5602 5602 5602 5602 5602 5602 5601 5601 5601 5600 5600 5600 5599 5598 5598 5597 5596 5596 5595 5594 5592 5591 5589 5587 5585 5583 5582 5580
5581 5581 5581 5582 5583 5584 5584 5586 5587 5588 5589 5589 5590 5590 5591 5591 5590 5590 5590 5589 5589 5588 5588 5588 5588 5587 5586 5586 5585 5584 5583 5582 5582 5581 5580 5578 5577 5576 5574 5572 5569 5567 5565
5571 5572 5572 5573 5573 5574 5575 5575 5576 5577 5578 5578 5579 5579 5579 5579 5578 5578 5577 5576 5576 5575 5575 5575 5574 5574 5573 5572 5572 5571 5570 5569 5568 5567 5567 5565 5563 5561 5559 5558 5555 5554 5551
5562 5562 5563 5563 5564 5564 5565 5565 5566 5566 5567 5567 5567 5567 5567 5567 5566 5566 5565 5564 5563 5562 5562 5561 5561 5560 5560 5559 5559 5558 5557 5556 5554 5553 5551 5550 5548 5546 5544 5543 5541 5539 5537
5552 5553 5553 5553 5554 5555 5555 5556 5556 5556 5556 5556 5556 5556 5556 5555 5555 5554 5553 5552 5552 5551 5550 5549 5548 5548 5546 5545 5545 5545 5544 5542 5541 5539 5537 5536 5534 5532 5530 5528 5526 5524 5522
5543 5543 5544 5544 5545 5545 5546 5546 5546 5546 5546 5546 5546 5545 5545 5544 5543 5542 5541 5540 5539 5538 5538 5537 5536 5535 5534 5533 5532 5532 5531 5529 5527 5526 5524 5522 5520 5518 5515 5513 5511 5509 5507
5533 5534 5534 5535 5535 5536 5536 5536 5536 5536 5536 5535 5535 5534 5533 5532 5532 5530 5529 5529 5528 5527 5526 5525 5524 5523 5522 5520 5519 5518 5517 5516 5514 5513 5511 5508 5506 5504 5502 5499 5497 5495 5492
5524 5524 5525 5525 5526 5526 5526 5527 5526 5526 5525 5525 5524 5524 5523 5521 5520 5519 5518 5517 5516 5515 5514 5513 5512 5510 5509 5508 5507 5506 5504 5503 5501 5499 5497 5495 5493 5491 5488 5485 5483 5481 5478
5514 5515 5516 5516 5516 5517 5517 5517 5516 5516 5515 5514 5514 5513 5512 5510 5509 5508 5507 5506 5505 5503 5502 5501 5499 5498 5497 5496 5494 5493 5491 5490 5488 5486 5484 5482 5479 5477 5475 5473 5470 5468 5466
5505 5506 5506 5506 5507 5507 5507 5506 5506 5506 5505 5504 5503 5502 5501 5500 5498 5497 5495 5495 5493 5492 5490 5489 5488 5486 5485 5484 5482 5480 5478 5477 5475 5473 5471 5469 5466 5464 5462 5459 5457 5455 5453
5496 5496 5497 5497 5497 5497 5497 5496 5495 5495 5494 5493 5492 5491 5490 5489 5487 5485 5484 5483 5482 5480 5479 5478 5476 5475 5473 5472 5470 5468 5466 5464 5462 5460 5458 5456 5453 5451 5449 5446 5444 5443 5441
5486 5487 5487 5487 5487 5487 5487 5486 5485 5484 5483 5482 5481 5480 5479 5477 5476 5474 5473 5472 5471 5469 5468 5467 5465 5463 5461 5459 5458 5456 5454 5452 5450 5448 5446 5443 5441 5438 5436 5434 5432 5431 5429
5478 5478 5478 5478 5478 5477 5477 5476 5475 5474 5474 5472 5471 5469 5468 5467 5465 5464 5463 5461 5460 5459 5457 5456 5454 5451 5449 5447 5445 5444 5442 5440 5438 5435 5433 5431 5428 5426 5424 5422 5421 5419 5418
5469 5469 5469 5469 5468 5468 5467 5466 5466 5465 5464 5463 5461 5460 5458 5457 5455 5454 5452 5451 5450 5448 5446 5444 5442 5440 5438 5436 5433 5432 5430 5428 5426 5423 5421 5419 5417 5415 5413 5411 5410 5409 5407
5461 5461 5460 5460 5459 5459 5458 5457 5456 5455 5454 5453 5452 5451 5449 5447 5446 5444 5443 5441 5439 5437 5435 5433 5431 5428 5426 5424 5422 5420 5418 5416 5414 5412 5410 5408 5406 5404 5403 5401 5400 5399 5398
5453 5453 5452 5451 5451 5450 5449 5448 5447 5446 5445 5444 5443 5442 5440 5439 5437 5435 5433 5431 5429 5427 5424 5422 5420 5417 5415 5413 5411 5409 5407 5405 5403 5401 5399 5398 5396 5394 5393 5392 5390 5389 5388
5445 5445 5444 5443 5442 5441 5440 5439 5438 5437 5437 5436 5435 5433 5432 5430 5428 5426 5424 5422 5419 5417 5415 5412 5410 5407 5405 5403 5400 5398 5396 5394 5393 5391 5389 5388 5386 5385 5384 5383 5381 5380 5379
5438 5438 5437 5436 5435 5433 5432 5431 5430 5429 5428 5428 5427 5425 5424 5422 5420 5418 5415 5413 5411 5408 5406 5403 5401 5398 5396 5393 5391 5388 5387 5385 5383 5382 5380 5379 5377 5376 5375 5374 5373 5371 5370
5431 5430 5429 5428 5427 5425 5424 5423 5422 5421 5421 5420 5419 5417 5416 5414 5412 5409 5407 5404 5402 5400 5397 5395 5392 5390 5387 5384 5382 5380 5378 5376 5374 5373 5371 5370 5369 5367 5366 5365 5364 5364 5363
5424 5423 5421 5420 5419 5418 5417 5416 5415 5414 5413 5413 5411 5410 5408 5406 5404 5401 5399 5396 5394 5391 5389 5386 5383 5381 5378 5376 5374 5372 5370 5368 5366 5365 5363 5362 5361 5360 5359 5358 5357 5357 5356
5417 5415 5414 5413 5412 5411 5410 5409 5408 5407 5407 5406 5404 5402 5401 5398 5396 5393 5391 5388 5385 5383 5380 5378 5375 5373 5371 5369 5367 5365 5363 5361 5359 5358 5356 5355 5354 5353 5352 5352 5351 5350 5349